[[{"header":{"parameterUnit":"m.s-1","parameterCategory":1,"la1":30.2991,"la2":30.254,"lo1":-89.0895,"lo2":-89.0444,"dy":0.0017,"dx":0.0017,"nx":28,"ny":28,"refTime":"2025-12-06T03:00:00:Z","depth":0,"parameterNumber":2,"parameterNumberName":"U-component_of_WINDS"},"data":[0,0,0,0,0,0,0,0,0,0,0,0,0,0,0,0,0,0,0,0,0,0,0,0,0,0,0,0,0,0,0,0,0,0,0,0,0,0,0,0,0,0,0,0,0,0,0,0,0,0,0,0,0,0,0,0,0,0,-0.8288,-0.8288,0,-0.8291,-0.8291,-0.8292,-0.8249,-0.8248,-0.8247,-0.8246,-0.8249,-0.825,-0.8252,0,0,0,0,0,0,0,0,0,0,0,0,0,-0.8248,-0.8249,-0.8288,-0.8288,-0.8289,-0.8291,-0.8291,-0.8292,-0.8249,-0.8248,-0.8246,-0.8245,-0.8249,-0.825,-0.8252,0,0,0,0,0,0,0,0,0,0,0,0,0,-0.826,-0.8249,-0.8288,-0.8268,-0.8266,-0.8291,-0.8291,-0.8292,-0.825,-0.8248,-0.8246,-0.8244,-0.8248,-0.825,-0.8252,-0.8297,0,0,-0.8257,-0.8258,0,0,0,0,0,0,0,0,-0.8259,-0.8261,-0.8271,-0.8269,-0.8267,-0.8268,-0.8278,-0.8294,-0.825,-0.8256,-0.8246,-0.8244,-0.8257,-0.8258,-0.8262,-0.8298,-0.8298,-0.8257,-0.8258,-0.8259,-0.826,0,0,0,0,0,0,0,-0.8258,-0.8261,-0.829,-0.8271,-0.8269,-0.8259,-0.8259,-0.8281,-0.8266,-0.8255,-0.8252,-0.8253,-0.8256,-0.8261,-0.8262,-0.8298,-0.8257,-0.8259,-0.826,-0.8261,-0.8373,-0.8375,0,0,0,0,0,0,-0.826,-0.826,-0.829,-0.829,-0.8259,-0.8261,-0.8261,-0.827,-0.8266,-0.8263,-0.8254,-0.8251,-0.8259,-0.826,-0.8262,-0.8317,-0.8259,-0.8261,-0.8262,-0.8371,-0.8374,-0.8376,0,0,0,0,0,0,-0.8259,-0.8263,-0.8289,-0.8274,-0.8277,-0.8264,-0.8274,-0.8271,-0.8275,-0.8265,-0.8262,-0.8262,-0.8257,-0.826,-0.8289,-0.8316,-0.8262,-0.8263,-0.8369,-0.8372,-0.8375,-0.8426,0,0,0,0,0,0,-0.8258,-0.8263,-0.828,-0.8275,-0.8278,-0.8316,-0.8275,-0.8272,-0.8279,-0.8274,-0.8272,-0.827,-0.8256,-0.8287,-0.8291,-0.8318,-0.8265,-0.8367,-0.837,-0.8374,-0.8422,-0.843,-0.8437,0,0,0,0,0,-0.8257,-0.8294,-0.8281,-0.8285,-0.8298,-0.8318,-0.832,-0.8303,-0.8281,-0.8298,-0.8292,-0.827,-0.8313,-0.8291,-0.8295,-0.8322,-0.8365,-0.8369,-0.8374,-0.8418,-0.8429,-0.8437,0,0,0,0,0,0,-0.8301,-0.8293,-0.8278,-0.8314,-0.8317,-0.8311,-0.8332,-0.8314,-0.8323,-0.8319,-0.8298,-0.8298,-0.8332,-0.833,-0.8305,-0.8367,-0.8335,-0.834,-0.8367,-0.8377,-0.8385,-0.8385,-0.8266,0,0,0,0,0,-0.8316,-0.8332,-0.8323,-0.8356,-0.8358,-0.8345,-0.8353,-0.834,-0.8342,-0.8343,-0.8339,-0.8343,-0.8357,-0.8367,-0.8379,-0.8421,-0.8421,-0.8442,-0.845,-0.8457,-0.8462,-0.8486,-0.8496,-0.839,-0.839,-0.839,0,0,-0.8345,-0.8342,-0.8353,-0.8365,-0.8366,-0.8384,-0.8346,-0.8367,-0.838,-0.8346,-0.8375,-0.8372,-0.8375,-0.8411,-0.8427,-0.8411,-0.8491,-0.8462,-0.8467,-0.8469,-0.8491,-0.8501,-0.851,-0.8393,-0.8392,-0.8392,0,0,-0.8407,-0.8406,-0.8434,-0.8436,-0.8438,-0.8429,-0.8436,-0.8433,-0.843,-0.8458,-0.8434,-0.845,-0.8474,-0.8478,-0.8483,-0.8549,-0.853,-0.8554,-0.8595,-0.8619,-0.8627,-0.8634,-0.866,-0.8669,-0.8559,-0.8559,-0.8559,0,-0.8443,-0.8469,-0.8451,-0.8473,-0.848,-0.8451,-0.848,-0.8482,-0.8489,-0.8494,-0.8475,-0.8507,-0.8507,-0.8545,-0.8561,-0.8566,-0.8574,-0.8554,-0.8627,-0.8634,-0.8641,-0.8665,-0.8674,-0.8562,-0.8562,-0.8561,-0.8561,0,-0.8514,-0.8533,-0.8555,-0.8563,-0.8572,-0.8597,-0.8584,-0.8595,-0.8582,-0.8576,-0.8606,-0.8604,-0.8617,-0.8625,-0.8612,-0.8662,-0.8652,-0.8631,-0.8598,-0.8654,-0.8677,-0.8685,-0.8566,-0.8565,-0.8564,-0.8564,0,0,-0.8604,-0.8602,-0.8611,-0.8615,-0.8616,-0.863,-0.8655,-0.8668,-0.8679,-0.8684,-0.8706,-0.8728,-0.8709,-0.8715,-0.8702,-0.8723,-0.8778,-0.8699,-0.8699,-0.8715,-0.8835,-0.8852,-0.8863,-0.8765,-0.8767,-0.8768,-0.8836,0,-0.8666,-0.8709,-0.8694,-0.8738,-0.8756,-0.8729,-0.8751,-0.8755,-0.875,-0.8765,-0.8759,-0.8777,-0.8749,-0.8753,-0.8772,-0.8767,-0.8802,-0.8762,-0.8786,-0.8787,-0.8787,-0.8874,-0.8892,-0.8955,-0.8844,-0.8845,-0.8846,0,-0.8744,-0.8754,-0.88,-0.88,-0.8807,-0.8827,-0.8838,-0.8853,-0.8857,-0.8852,-0.8859,-0.8843,-0.8868,-0.8835,-0.8871,-0.8845,-0.8854,-0.8853,-0.8855,-0.8857,-0.8821,-0.888,-0.8975,-0.8985,-0.8859,-0.8858,-0.8857,0,-0.8807,-0.8832,-0.8863,-0.8867,-0.8867,-0.8882,-0.8883,-0.8885,-0.8894,-0.8904,-0.891,-0.8923,-0.8931,-0.8942,-0.893,-0.8906,-0.8968,-0.8933,-0.8966,-0.8966,-0.8981,-0.898,-0.908,-0.8985,-0.8985,-0.8984,-0.8984,0,-0.8879,-0.8908,-0.8891,-0.8911,-0.8944,-0.8927,-0.896,-0.8957,-0.896,-0.8979,-0.8957,-0.8975,-0.8958,-0.8975,-0.8965,-0.8998,-0.9001,-0.8999,-0.8996,-0.9001,-0.9002,-0.9008,-0.9003,-0.8987,-0.8986,-0.8986,-0.8985,0,-0.8955,-0.8945,-0.8977,-0.8975,-0.8975,-0.9,-0.8998,-0.9017,-0.901,-0.9035,-0.904,-0.9031,-0.905,-0.9039,-0.9058,-0.9052,-0.9095,-0.9086,-0.9094,-0.9092,-0.9125,-0.9123,-0.9233,-0.9247,-0.9142,-0.9143,-0.9144,0,-0.9002,-0.9024,-0.9025,-0.9036,-0.9039,-0.9057,-0.9067,-0.9051,-0.9062,-0.907,-0.9088,-0.9105,-0.9118,-0.9151,-0.9146,-0.9162,-0.9153,-0.9191,-0.9156,-0.9161,-0.9156,-0.9155,-0.9158,-0.9198,-0.92,-0.9201,-0.9201,0,-0.9087,-0.9081,-0.9095,-0.9109,-0.9122,-0.9132,-0.914,-0.915,-0.9135,-0.9149,-0.9169,-0.9179,-0.92,-0.9218,-0.9232,-0.9233,-0.9216,-0.9213,-0.9221,-0.9227,-0.9232,-0.9231,-0.9115,-0.921,-0.9209,-0.9209,-0.9208,-0.9208,-0.915,-0.917,-0.9174,-0.9192,-0.9196,-0.9205,-0.9223,-0.9219,-0.9235,-0.9251,-0.9241,-0.9265,-0.927,-0.9287,-0.9291,-0.931,-0.9295,-0.9307,-0.931,-0.9314,-0.9319,-0.9228,-0.9312,-0.9312,-0.9312,-0.9311,-0.9311,0,-0.9235,-0.9237,-0.9254,-0.9266,-0.9281,-0.9263,-0.9271,-0.9285,-0.9306,-0.9312,-0.9326,-0.935,-0.9368,-0.9366,-0.9382,-0.9398,-0.9391,-0.9403,-0.9402,-0.9404,-0.9331,-0.9322,-0.9409,-0.9409,-0.9409,-0.9409,-0.9409,-0.9409,-0.9281,-0.9314,-0.9309,-0.9344,-0.9345,-0.9369,-0.9376,-0.9384,-0.9389,-0.9417,-0.9432,-0.943,-0.9433,-0.9451,-0.9467,-0.9466,-0.9474,-0.949,-0.9486,-0.9418,-0.9408,-0.9399,-0.9391,-0.9491,-0.9491,-0.9557,-0.9557,-0.9558]},{"header":{"parameterUnit":"m.s-1","parameterCategory":1,"la1":30.2991,"la2":30.254,"lo1":-89.0895,"lo2":-89.0444,"dy":0.0017,"dx":0.0017,"nx":28,"ny":28,"refTime":"2025-12-06T03:00:00:Z","depth":0,"parameterNumber":3,"parameterNumberName":"V-component_of_WINDS"},"data":[0,0,0,0,0,0,0,0,0,0,0,0,0,0,0,0,0,0,0,0,0,0,0,0,0,0,0,0,0,0,0,0,0,0,0,0,0,0,0,0,0,0,0,0,0,0,0,0,0,0,0,0,0,0,0,0,0,0,-1.5637,-1.5638,0,-1.5694,-1.5695,-1.5696,-1.5689,-1.5688,-1.5687,-1.5686,-1.574,-1.5743,-1.5745,0,0,0,0,0,0,0,0,0,0,0,0,0,-1.5518,-1.5521,-1.5637,-1.5638,-1.5639,-1.5694,-1.5695,-1.5696,-1.5689,-1.5688,-1.5687,-1.5686,-1.574,-1.5742,-1.5745,0,0,0,0,0,0,0,0,0,0,0,0,0,-1.5572,-1.5521,-1.5637,-1.5642,-1.5643,-1.5694,-1.5695,-1.5696,-1.5689,-1.5688,-1.5687,-1.5685,-1.5739,-1.5742,-1.5745,-1.5794,0,0,-1.5756,-1.5757,0,0,0,0,0,0,0,0,-1.5569,-1.5576,-1.5641,-1.5642,-1.5643,-1.5683,-1.5673,-1.5729,-1.569,-1.5672,-1.5686,-1.5685,-1.5722,-1.5727,-1.574,-1.5796,-1.5799,-1.5756,-1.5758,-1.576,-1.5761,0,0,0,0,0,0,0,-1.5565,-1.5574,-1.566,-1.5642,-1.5643,-1.564,-1.5646,-1.5683,-1.5704,-1.5673,-1.5673,-1.568,-1.5723,-1.5737,-1.5742,-1.5799,-1.5756,-1.5759,-1.5761,-1.5763,-1.5898,-1.5899,0,0,0,0,0,0,-1.5561,-1.5571,-1.5658,-1.5662,-1.5602,-1.5643,-1.565,-1.5672,-1.5703,-1.5707,-1.5681,-1.5679,-1.5732,-1.5738,-1.5744,-1.5803,-1.576,-1.5763,-1.5765,-1.5896,-1.5898,-1.59,0,0,0,0,0,0,-1.5558,-1.5569,-1.5656,-1.5616,-1.5627,-1.5647,-1.5671,-1.5674,-1.5688,-1.5709,-1.5712,-1.5693,-1.5731,-1.5739,-1.5782,-1.5804,-1.5765,-1.5768,-1.5894,-1.5897,-1.5899,-1.5921,0,0,0,0,0,0,-1.5555,-1.5568,-1.5588,-1.5617,-1.5629,-1.5694,-1.5672,-1.5676,-1.5695,-1.5693,-1.5721,-1.5724,-1.5731,-1.5777,-1.5785,-1.5808,-1.577,-1.5892,-1.5895,-1.5898,-1.5918,-1.5924,-1.5928,0,0,0,0,0,-1.5551,-1.5591,-1.5589,-1.5599,-1.5654,-1.5696,-1.5703,-1.571,-1.5697,-1.5716,-1.5729,-1.5723,-1.58,-1.5781,-1.5791,-1.5815,-1.5891,-1.5894,-1.5898,-1.5916,-1.5923,-1.5928,0,0,0,0,0,0,-1.5562,-1.5595,-1.5593,-1.5643,-1.5667,-1.5694,-1.5719,-1.5717,-1.5744,-1.5741,-1.5748,-1.5755,-1.5798,-1.5811,-1.5789,-1.5863,-1.5844,-1.5849,-1.5854,-1.5861,-1.5865,-1.5862,-1.5773,0,0,0,0,0,-1.5571,-1.5603,-1.5629,-1.5671,-1.5683,-1.5699,-1.5717,-1.5721,-1.5745,-1.5755,-1.5772,-1.5794,-1.5823,-1.5842,-1.587,-1.592,-1.5925,-1.5941,-1.5946,-1.595,-1.5955,-1.5982,-1.5989,-1.5911,-1.5911,-1.5911,0,0,-1.5588,-1.561,-1.563,-1.5674,-1.5693,-1.5725,-1.5707,-1.5742,-1.5765,-1.576,-1.5802,-1.5815,-1.584,-1.5887,-1.5908,-1.5898,-1.5978,-1.5955,-1.5958,-1.596,-1.5986,-1.5994,-1.6,-1.5913,-1.5913,-1.5912,0,0,-1.5637,-1.5657,-1.5695,-1.5714,-1.5743,-1.5754,-1.5763,-1.5791,-1.5799,-1.5842,-1.5838,-1.5865,-1.5916,-1.5934,-1.595,-1.6006,-1.6001,-1.6014,-1.6041,-1.6067,-1.6073,-1.6079,-1.6099,-1.6106,-1.6019,-1.6019,-1.6019,0,-1.5655,-1.5705,-1.5714,-1.5749,-1.5769,-1.5766,-1.5804,-1.5821,-1.5857,-1.587,-1.5859,-1.5923,-1.5939,-1.599,-1.6004,-1.6017,-1.6026,-1.6012,-1.6072,-1.6078,-1.6083,-1.6102,-1.611,-1.602,-1.602,-1.602,-1.602,0,-1.5726,-1.576,-1.5787,-1.5824,-1.5846,-1.5882,-1.5895,-1.5916,-1.5917,-1.5929,-1.5972,-1.5992,-1.6024,-1.6036,-1.6037,-1.6087,-1.608,-1.6071,-1.6051,-1.6092,-1.611,-1.6117,-1.6023,-1.6022,-1.6022,-1.6021,0,0,-1.5784,-1.5826,-1.5836,-1.5852,-1.5884,-1.591,-1.5945,-1.5979,-1.5996,-1.6021,-1.605,-1.6093,-1.6084,-1.6102,-1.6106,-1.6129,-1.6172,-1.6116,-1.6117,-1.6126,-1.6228,-1.6236,-1.6244,-1.6169,-1.617,-1.6171,-1.6226,0,-1.5837,-1.5902,-1.5911,-1.5967,-1.5999,-1.5997,-1.6027,-1.605,-1.6061,-1.6088,-1.6099,-1.613,-1.6116,-1.6127,-1.6149,-1.6162,-1.6192,-1.6158,-1.6196,-1.6197,-1.6191,-1.6254,-1.6262,-1.6313,-1.6233,-1.6234,-1.6235,0,-1.5908,-1.5936,-1.5997,-1.6024,-1.6038,-1.6066,-1.6097,-1.6123,-1.6147,-1.6154,-1.6174,-1.6174,-1.621,-1.6188,-1.6236,-1.6213,-1.6228,-1.6237,-1.6239,-1.6243,-1.6219,-1.626,-1.6329,-1.6337,-1.6246,-1.6245,-1.6245,0,-1.5945,-1.5998,-1.6041,-1.6056,-1.6089,-1.6108,-1.6123,-1.6146,-1.6165,-1.6192,-1.6204,-1.6233,-1.625,-1.6272,-1.628,-1.6263,-1.6328,-1.6306,-1.6333,-1.6333,-1.6348,-1.6347,-1.6421,-1.6357,-1.6356,-1.6356,-1.6356,0,-1.6003,-1.6041,-1.6059,-1.6085,-1.6127,-1.6135,-1.6175,-1.6189,-1.6209,-1.6238,-1.6236,-1.6262,-1.6271,-1.6298,-1.6304,-1.6344,-1.6351,-1.6356,-1.6357,-1.6357,-1.6356,-1.6368,-1.6365,-1.6358,-1.6358,-1.6358,-1.6357,0,-1.6053,-1.6066,-1.6113,-1.6141,-1.6149,-1.6178,-1.6201,-1.6227,-1.6237,-1.6273,-1.6282,-1.6298,-1.633,-1.634,-1.6378,-1.6382,-1.6428,-1.6426,-1.642,-1.6421,-1.6447,-1.6445,-1.6532,-1.6544,-1.6471,-1.6472,-1.6472,0,-1.6089,-1.6118,-1.615,-1.617,-1.6185,-1.6217,-1.6237,-1.6246,-1.6266,-1.6296,-1.6318,-1.635,-1.6376,-1.6427,-1.6441,-1.647,-1.6469,-1.6497,-1.6473,-1.6472,-1.647,-1.6469,-1.6472,-1.6502,-1.6503,-1.6503,-1.6504,0,-1.6154,-1.6159,-1.6189,-1.6222,-1.6246,-1.6271,-1.6296,-1.6311,-1.6323,-1.6346,-1.638,-1.6401,-1.644,-1.6472,-1.6501,-1.6514,-1.6511,-1.6511,-1.6519,-1.6519,-1.6516,-1.6519,-1.6434,-1.6509,-1.6509,-1.6508,-1.6508,-1.6508,-1.6198,-1.6224,-1.6251,-1.6284,-1.6303,-1.6326,-1.6352,-1.6366,-1.6395,-1.6429,-1.6431,-1.6468,-1.6491,-1.653,-1.6545,-1.6572,-1.6564,-1.6575,-1.6578,-1.6581,-1.6584,-1.651,-1.6578,-1.6577,-1.6577,-1.6577,-1.6577,0,-1.6263,-1.628,-1.6311,-1.6346,-1.6372,-1.6368,-1.6394,-1.6416,-1.6448,-1.6471,-1.6497,-1.6535,-1.6566,-1.6583,-1.6613,-1.6632,-1.6631,-1.6639,-1.6639,-1.6642,-1.6589,-1.658,-1.664,-1.664,-1.664,-1.664,-1.664,-1.664,-1.63,-1.6344,-1.6352,-1.6405,-1.6421,-1.6458,-1.6474,-1.6495,-1.6513,-1.6556,-1.6582,-1.6594,-1.6613,-1.6645,-1.6673,-1.6677,-1.6688,-1.6698,-1.6701,-1.6652,-1.6645,-1.6639,-1.663,-1.67,-1.67,-1.6751,-1.6751,-1.6752]}]]